Regional Weather Roundup
Issued by NWS Midland/Odessa, TX

Skip options and go directly to product.
Home | Oldest Version | Next Version | Current Version | All | Text Only | Save Text | Print | Product List | Glossary On

Skip product version selection by date and time.   
032
ASUS44 KMAF 240301
RWRMAF
MIDLAND AREA WEATHER ROUNDUP
NATIONAL WEATHER SERVICE MIDLAND TX
1000 PM CDT MON MAY 23 2016

...IN SOUTHWEST TEXAS AND SOUTHEAST NEW MEXICO...

CITY           SKY/WX    TMP DP  RH WIND       PRES   REMARKS
ALPINE         CLEAR     74  34  23 S6        29.94S
ANDREWS        FAIR      78  48  34 S9        29.82R
ARTESIA        CLEAR     77  21  12 W10       29.79S
BIG SPRING     CLEAR     75  66  73 SE14G21   29.82R
CARLSBAD       CLEAR     76  20  12 SW10      29.77S
DRYDEN         NOT AVBL
FORT STOCKTON  CLEAR     74  60  61 SE22G31   29.82R
GUAD PASS      NOT AVBL
HOBBS          CLEAR     72  23  16 SW5       29.83R
MARFA          NOT AVBL
MIDLAND AIRPK  CLEAR     83  62  49 S16G28    29.82R
MIDLAND INTL   CLEAR     81  64  56 S20G31    29.82R
ODESSA         CLEAR     80  65  59 S17       29.83R
PECOS          CLEAR     84  65  53 SE18      29.76R
PRESIDIO       FAIR      89  31  12 N6        29.72S
SEMINOLE       CLEAR     79  45  29 S10       29.82R
SNYDER           N/A     77  71  82 SE17G26   29.82R
WINK           CLEAR     81  65  58 MISG      29.78R
$$
...OTHER STATIONS IN TEXAS...

CITY           SKY/WX    TMP DP  RH WIND       PRES   REMARKS
ABILENE        MOCLDY    76  71  85 S15G22    29.83R
AMARILLO       CLEAR     72  58  61 SE14      29.80R
AUSTIN         CLOUDY    78  71  79 SE15G24   29.89R
BROWNSVILLE    CLOUDY    81  76  84 SE8       29.85R
CORPUS CHRISTI CLOUDY    80  75  84 SE12      29.85S
DALLAS FTW     LGT RAIN  78  70  76 S10       29.87R
DEL RIO        MOCLDY    82  75  79 E13       29.79R
EL PASO        CLEAR     85  10   6 W20       29.82R
HOUSTON INT    MOCLDY    76  71  85 SE13      29.90R
LUBBOCK        PTCLDY    75  64  68 S20       29.79R
SAN ANGELO     CLEAR     79  70  74 SE9       29.81S
SAN ANTONIO    CLOUDY    78  73  84 SE13      29.88R
WACO           CLOUDY    78  70  76 S12       29.88R
WICHITA FALLS  NOT AVBL
$$
...OTHER LOCATIONS IN NEW MEXICO...

CITY           SKY/WX    TMP DP  RH WIND       PRES   REMARKS
ALAMAGORDO     CLEAR     75  18  11 SW3       29.85R
ALBUQUERQUE    PTCLDY    77  14   9 SW10      29.86R
CANNON AFB     CLEAR     70  37  30 SE8       29.81S
CLOVIS         CLEAR     66  41  39 S7        29.82R
HOLLOMAN AFB   CLEAR     76  16  10 W5        29.83R
ROSWELL        CLEAR     74  23  15 SW8       29.78R
RUIDOSO          N/A     66  14  13 SW14G20   30.03R
SANTA FE       CLEAR     64  19  17 N3        29.90R
TRUTH OR CONSE CLEAR     75  16  10 W7        29.87R
TUCUMCARI      CLEAR     68  32  26 S6        29.77R
$$

USA.gov is the U.S. government's official web portal to all federal, state and local government web resources and services.